Weather History for Poplar Bluff, MO

Change the Weather History Date:

Wednesday, November 28, 2012

  Actual Average Record
Temperature  
Mean Temperature 38 °F -  
Max Temperature 50 °F 52 °F 77 °F (1949)
Min Temperature 25 °F 33 °F 11 °F (1955)
Degree Days  
Heating Degree Days 28    
Moisture  
Dew Point 26 °F    
Average Humidity 70    
Maximum Humidity 89    
Minimum Humidity 38    
Precipitation  
Precipitation 0.00 in - - ()
Sea Level Pressure  
Sea Level Pressure 30.42 in    
Wind  
Wind Speed 0 mph (NE)    
Max Wind Speed 4 mph    
Max Gust Speed -    
Visibility 9 miles    
Events      
Averages and records for this station are not official NWS values.
T = Trace of Precipitation, MM = Missing Value Source: NWS Daily Summary

Daily Weather History Graph

Daily Weather History Graph

Search for Another Location

Airport:

Trip Planner

Search our weather history database for the weather conditions in past years. The results will help you decide how hot, cold, wet, or windy it might be!

Date:

Astronomy

Nov. 28, 2012 Rise Set
Actual Time 6:52 AM CST 4:45 PM CST
Civil Twilight 6:24 AM CST 5:14 PM CST
Nautical Twilight 5:52 AM CST 5:46 PM CST
Astronomical Twilight 5:21 AM CST 6:17 PM CST
Moon 5:00 PM CST (11/28) 6:50 AM CST (11/28)
Length of Visible Light 10h 49m
Length of Day
9h 52m
Full, 100% of the Moon is Illuminated
Nov 28
Full
Dec 6
Last Quarter
Dec 13
New
Dec 19
First Quarter
Dec 28
Full

Hourly Weather History & Observations

Time (CST) Temp. Windchill Dew Point Humidity Pressure Visibility Wind Dir Wind Speed Gust Speed Precip Events Conditions
12:53 AM 27.0 °F - 23.0 °F 85% 30.39 in 9.0 mi Calm Calm - N/A   Clear
1:53 AM 27.0 °F - 23.0 °F 85% 30.41 in 10.0 mi Calm Calm - N/A   Clear
2:53 AM 26.1 °F - 21.9 °F 84% 30.41 in 9.0 mi Calm Calm - N/A   Clear
3:53 AM 26.1 °F - 21.9 °F 84% 30.41 in 8.0 mi Calm Calm - N/A   Clear
4:53 AM 26.1 °F - 21.9 °F 84% 30.43 in 9.0 mi Calm Calm - N/A   Clear
5:53 AM 25.0 °F - 21.0 °F 85% 30.44 in 9.0 mi Calm Calm - N/A   Clear
6:53 AM 25.0 °F - 21.0 °F 85% 30.46 in 8.0 mi Calm Calm - N/A   Clear
7:53 AM 28.0 °F - 24.1 °F 85% 30.48 in 7.0 mi Calm Calm - N/A   Clear
8:53 AM 34.0 °F - 28.9 °F 82% 30.48 in 9.0 mi Calm Calm - N/A   Clear
9:53 AM 41.0 °F 39.0 °F 28.9 °F 62% 30.49 in 10.0 mi NW 3.5 mph - N/A   Clear
10:53 AM 46.0 °F - 28.0 °F 50% 30.49 in 10.0 mi Calm Calm - N/A   Clear
11:53 AM 48.9 °F - 26.1 °F 41% 30.46 in 10.0 mi ENE 3.5 mph - N/A   Clear
12:53 PM 50.0 °F - 25.0 °F 38% 30.43 in 10.0 mi Calm Calm - N/A   Clear
1:53 PM 50.0 °F - 26.1 °F 39% 30.41 in 10.0 mi South 3.5 mph - N/A   Clear
2:53 PM 50.0 °F - 27.0 °F 41% 30.40 in 10.0 mi Calm Calm - N/A   Clear
3:53 PM 50.0 °F - 27.0 °F 41% 30.40 in 10.0 mi Calm Calm - N/A   Clear
4:53 PM 46.0 °F - 28.0 °F 50% 30.39 in 10.0 mi Calm Calm - N/A   Clear
5:53 PM 41.0 °F - 28.9 °F 62% 30.40 in 10.0 mi Calm Calm - N/A   Clear
6:53 PM 39.0 °F - 30.0 °F 70% 30.40 in 10.0 mi Calm Calm - N/A   Clear
7:53 PM 34.0 °F - 28.9 °F 82% 30.40 in 9.0 mi Calm Calm - N/A   Clear
8:53 PM 32.0 °F - 28.9 °F 88% 30.39 in 9.0 mi Calm Calm - N/A   Clear
9:53 PM 30.9 °F - 28.0 °F 89% 30.38 in 10.0 mi Calm Calm - N/A   Clear
10:53 PM 30.9 °F - 27.0 °F 85% 30.37 in 10.0 mi Calm Calm - N/A   Clear
11:53 PM 28.9 °F - 26.1 °F 89% 30.36 in 10.0 mi Calm Calm - N/A   Clear